EW2561 Weather Reports


Display with metric or nautical units.
time (UTC)temp
F
wind
direction
speed
MPH
gust
MPH
rain 1hr
in
rain 24hr
in
rain mn
in
humidity
%
barometer
mb
20260508234330 45 130 0.0 0.0 0.00 0.00 0.00 93 1015.5
20260508233830 45 130 0.0 0.0 0.00 0.00 0.00 93 1015.5
20260508233329 45 130 0.0 0.0 0.00 0.00 0.00 93 1015.5
20260508232830 45 130 0.0 0.0 0.00 0.00 0.00 93 1015.5
20260508232330 45 130 0.0 0.0 0.00 0.00 0.00 93 1015.6
20260508231825 45 130 0.0 0.0 0.00 0.00 0.00 93 1015.5
20260508231301 46 130 0.0 0.0 0.00 0.00 0.00 93 1015.6
20260508230801 46 130 0.0 0.0 0.00 0.00 0.00 93 1015.5
20260508230532 46 130 0.0 0.0 0.00 0.00 0.00 93 1015.5
20260508225801 46 130 0.0 0.0 0.00 0.00 0.00 92 1015.5
20260508225301 46 130 0.0 0.0 0.00 0.00 0.00 92 1015.5
20260508224729 46 130 0.0 0.0 0.00 0.00 0.00 92 1015.5
20260508224228 46 130 0.0 0.0 0.00 0.00 0.00 92 1015.4
20260508223730 46 130 0.0 0.0 0.00 0.00 0.00 92 1015.4
20260508223452 46 130 0.0 0.0 0.00 0.00 0.00 92 1015.4
20260508222735 47 130 0.0 0.0 0.00 0.00 0.00 92 1015.3
20260508222224 47 130 0.0 0.0 0.00 0.00 0.00 91 1015.3
20260508222205 47 130 0.0 0.0 0.00 0.00 0.00 91 1015.3
20260508221208 47 130 0.0 0.0 0.00 0.00 0.00 91 1015.3
20260508220703 47 130 0.0 0.0 0.00 0.00 0.00 91 1015.3
20260508220151 47 130 0.0 0.0 0.00 0.00 0.00 91 1015.3
20260508215645 47 130 0.0 0.0 0.00 0.00 0.00 91 1015.3
20260508215142 48 130 0.0 0.0 0.00 0.00 0.00 91 1015.3
20260508214902 48 130 0.0 0.0 0.00 0.00 0.00 90 1015.2
20260508214134 48 130 0.0 0.0 0.00 0.00 0.00 90 1015.2
20260508213607 48 130 0.0 0.0 0.00 0.00 0.00 89 1015.3
20260508213035 48 130 0.0 0.0 0.00 0.00 0.00 89 1015.3
20260508212534 49 130 0.0 0.0 0.00 0.00 0.00 89 1015.2
20260508212006 49 130 0.0 0.0 0.00 0.00 0.00 88 1015.2
20260508211507 49 130 0.0 0.0 0.00 0.00 0.00 88 1015.2
20260508211412 49 130 0.0 0.0 0.00 0.00 0.00 88 1015.2
20260508210435 49 130 0.0 0.0 0.00 0.00 0.00 88 1015.3
20260508205931 50 130 0.0 0.0 0.00 0.00 0.00 87 1015.3
20260508205406 50 130 0.0 0.0 0.00 0.00 0.00 87 1015.2
20260508204906 50 130 0.0 0.0 0.00 0.00 0.00 86 1015.2
20260508204820 50 130 0.0 0.0 0.00 0.00 0.00 86 1015.2
20260508203832 51 130 0.0 0.0 0.00 0.00 0.00 85 1015.2
20260508203330 51 130 0.0 0.0 0.00 0.00 0.00 85 1015.2
20260508202829 51 130 0.0 0.0 0.00 0.00 0.00 85 1015.1
20260508202329 51 130 0.0 0.0 0.00 0.00 0.00 84 1015.1
20260508201829 52 130 0.0 0.0 0.00 0.00 0.00 84 1015.1
20260508201331 52 130 0.0 0.0 0.00 0.00 0.00 83 1015.1
20260508200829 52 130 0.0 0.0 0.00 0.00 0.00 82 1015.0
20260508200330 53 130 0.0 0.0 0.00 0.00 0.00 82 1014.9
20260508200045 53 130 0.0 0.0 0.00 0.00 0.00 81 1015.0
20260508195312 54 130 0.0 0.0 0.00 0.00 0.00 80 1014.9
20260508194803 54 130 0.0 0.0 0.00 0.00 0.00 80 1014.9
20260508194303 55 130 0.0 0.0 0.00 0.00 0.00 79 1015.0
20260508193801 55 130 0.0 0.0 0.00 0.00 0.00 78 1014.9
20260508193301 55 130 0.0 0.0 0.00 0.00 0.00 77 1014.9
20260508192801 56 130 0.0 0.0 0.00 0.00 0.00 76 1014.9
20260508192230 57 130 0.0 0.0 0.00 0.00 0.00 75 1014.7
20260508192214 57 130 0.0 0.0 0.00 0.00 0.00 73 1014.7
20260508191423 58 130 0.0 0.0 0.00 0.00 0.00 72 1014.7
20260508190701 58 130 0.0 0.0 0.00 0.00 0.00 71 1014.6
20260508190129 59 130 0.0 0.0 0.00 0.00 0.00 70 1014.5
20260508185629 60 130 0.0 0.0 0.00 0.00 0.00 69 1014.4
20260508185131 60 130 0.0 0.0 0.00 0.00 0.00 68 1014.3
20260508184631 61 130 0.0 1.0 0.00 0.00 0.00 66 1014.3
20260508184130 61 130 0.0 1.0 0.00 0.00 0.00 61 1014.3
20260508183603 61 130 0.0 1.0 0.00 0.00 0.00 61 1014.3
20260508183101 62 130 0.0 3.0 0.00 0.00 0.00 60 1014.1
20260508182530 62 130 0.0 3.0 0.00 0.00 0.00 57 1014.1
20260508182027 62 139 0.0 1.0 0.00 0.00 0.00 57 1014.1
20260508181745 63 137 1.0 3.0 0.00 0.00 0.00 56 1014.1
20260508181013 63 124 1.0 2.0 0.00 0.00 0.00 55 1014.0
20260508180506 63 160 1.0 6.0 0.00 0.00 0.00 54 1014.0
20260508180002 64 133 1.0 5.0 0.00 0.00 0.00 53 1013.8
20260508175501 64 150 2.0 5.0 0.00 0.00 0.00 53 1013.8
20260508174930 64 75 2.0 6.0 0.00 0.00 0.00 52 1013.8
20260508174652 64 110 2.0 6.0 0.00 0.00 0.00 52 1013.8
20260508173902 64 40 2.0 4.0 0.00 0.00 0.00 52 1013.7
20260508173556 64 56 2.0 5.0 0.00 0.00 0.00 52 1013.6
20260508172829 64 50 2.0 4.0 0.00 0.00 0.00 51 1013.7
20260508172306 64 145 2.0 7.0 0.00 0.00 0.00 51 1013.6
20260508171801 64 108 2.0 7.0 0.00 0.00 0.00 51 1013.6
20260508171229 65 135 2.0 5.0 0.00 0.00 0.00 51 1013.6
20260508170729 65 120 2.0 5.0 0.00 0.00 0.00 51 1013.6
20260508170231 65 346 2.0 5.0 0.00 0.00 0.00 52 1013.5
20260508165729 65 113 2.0 6.0 0.00 0.00 0.00 51 1013.5
20260508165450 65 91 1.0 6.0 0.00 0.00 0.00 51 1013.4
20260508164704 65 163 1.0 5.0 0.00 0.00 0.00 53 1013.4
20260508164202 65 128 2.0 6.0 0.00 0.00 0.00 52 1013.4
20260508164129 65 65 2.0 6.0 0.00 0.00 0.00 52 1013.4
20260508163137 65 122 3.0 7.0 0.00 0.00 0.00 53 1013.4
20260508162633 65 86 2.0 7.0 0.00 0.00 0.00 53 1013.4
20260508162130 65 338 2.0 5.0 0.00 0.00 0.00 53 1013.4
20260508161824 65 137 3.0 8.0 0.00 0.00 0.00 53 1013.4
20260508161328 65 98 3.0 8.0 0.00 0.00 0.00 52 1013.5
20260508160550 65 146 3.0 7.0 0.00 0.00 0.00 53 1013.5
20260508160036 65 31 2.0 7.0 0.00 0.00 0.00 54 1013.5
20260508155535 65 67 2.0 7.0 0.00 0.00 0.00 54 1013.6
20260508155002 65 83 2.0 7.0 0.00 0.00 0.00 54 1013.5
20260508154501 65 0 2.0 7.0 0.00 0.00 0.00 54 1013.5
20260508154001 65 72 3.0 8.0 0.00 0.00 0.00 53 1013.6
20260508153506 65 131 3.0 8.0 0.00 0.00 0.00 54 1013.6
20260508152936 65 99 3.0 5.0 0.00 0.00 0.00 52 1013.6
20260508152657 65 134 2.0 6.0 0.00 0.00 0.00 51 1013.7
20260508151931 65 49 2.0 6.0 0.00 0.00 0.00 53 1013.7
20260508151403 65 15 2.0 6.0 0.00 0.00 0.00 51 1013.8
20260508151127 65 95 2.0 6.0 0.00 0.00 0.00 51 1013.8
20260508150402 65 69 2.0 4.0 0.00 0.00 0.00 51 1013.8
20260508145901 65 129 2.0 4.0 0.00 0.00 0.00 51 1013.8
20260508145402 65 143 2.0 5.0 0.00 0.00 0.00 53 1013.8
20260508144900 65 47 2.0 5.0 0.00 0.00 0.00 53 1013.8
20260508144401 65 122 2.0 6.0 0.00 0.00 0.00 51 1013.8
20260508143901 65 57 2.0 6.0 0.00 0.00 0.00 52 1013.8
20260508143403 65 34 1.0 5.0 0.00 0.00 0.00 52 1014.0
20260508142831 65 1 2.0 5.0 0.00 0.00 0.00 54 1014.0
20260508142325 65 98 2.0 7.0 0.00 0.00 0.00 51 1014.1
20260508141805 65 300 2.0 7.0 0.00 0.00 0.00 53 1014.1
20260508141303 65 2 3.0 6.0 0.00 0.00 0.00 53 1014.1
20260508141215 65 77 3.0 6.0 0.00 0.00 0.00 54 1014.2
20260508140231 65 350 2.0 6.0 0.00 0.00 0.00 55 1014.1
20260508135729 65 91 3.0 7.0 0.00 0.00 0.00 54 1014.2
20260508135229 65 113 3.0 7.0 0.00 0.00 0.00 55 1014.2
20260508134722 65 0 3.0 7.0 0.00 0.00 0.00 55 1014.2
20260508134204 65 94 2.0 7.0 0.00 0.00 0.00 54 1014.3
20260508133645 65 349 2.0 5.0 0.00 0.00 0.00 55 1014.2
20260508133131 65 45 2.0 6.0 0.00 0.00 0.00 53 1014.3
20260508132630 65 104 1.0 6.0 0.00 0.00 0.00 53 1014.3
20260508132322 65 298 2.0 5.0 0.00 0.00 0.00 55 1014.2
20260508131603 64 87 2.0 5.0 0.00 0.00 0.00 55 1014.2
20260508131103 64 77 2.0 4.0 0.00 0.00 0.00 54 1014.2
20260508130531 64 139 2.0 7.0 0.00 0.00 0.00 56 1014.4
20260508130031 64 160 3.0 7.0 0.00 0.00 0.00 55 1014.3
20260508125529 64 84 3.0 9.0 0.00 0.00 0.00 53 1014.4
20260508125252 64 21 3.0 9.0 0.00 0.00 0.00 53 1014.4
20260508124501 64 44 2.0 7.0 0.00 0.00 0.00 54 1014.4
20260508124000 65 294 2.0 7.0 0.00 0.00 0.00 55 1014.4
20260508123503 65 359 2.0 8.0 0.00 0.00 0.00 56 1014.4
20260508122931 64 147 3.0 8.0 0.00 0.00 0.00 56 1014.4
20260508122916 65 146 3.0 7.0 0.00 0.00 0.00 56 1014.3
20260508121902 65 84 3.0 7.0 0.00 0.00 0.00 57 1014.4
20260508121401 65 166 2.0 7.0 0.00 0.00 0.00 58 1014.4
20260508120903 65 105 2.0 7.0 0.00 0.00 0.00 58 1014.4
20260508120331 64 100 2.0 5.0 0.00 0.00 0.00 58 1014.4
20260508115826 64 1 2.0 6.0 0.00 0.00 0.00 59 1014.4
20260508115306 64 167 2.0 6.0 0.00 0.00 0.00 60 1014.5
20260508115031 64 41 2.0 7.0 0.00 0.00 0.00 62 1014.5
20260508114301 64 329 2.0 7.0 0.00 0.00 0.00 61 1014.5
20260508113800 64 124 2.0 6.0 0.00 0.00 0.00 62 1014.5
20260508113306 63 27 1.0 5.0 0.00 0.00 0.00 63 1014.5
20260508112735 63 41 1.0 4.0 0.00 0.00 0.00 62 1014.5
20260508112234 63 192 2.0 5.0 0.00 0.00 0.00 63 1014.6
20260508111702 63 344 1.0 5.0 0.00 0.00 0.00 63 1014.5
20260508111201 63 102 1.0 4.0 0.00 0.00 0.00 63 1014.5
20260508110706 63 326 1.0 2.0 0.00 0.00 0.00 65 1014.5
20260508110143 63 343 1.0 3.0 0.00 0.00 0.00 61 1014.5
20260508105858 63 359 0.0 2.0 0.00 0.00 0.00 61 1014.5
20260508105131 63 23 0.0 3.0 0.00 0.00 0.00 61 1014.6
20260508104630 63 45 0.0 3.0 0.00 0.00 0.00 62 1014.6
20260508104349 62 11 1.0 4.0 0.00 0.00 0.00 60 1014.6
20260508103628 62 104 1.0 4.0 0.00 0.00 0.00 61 1014.6
20260508103320 62 124 1.0 3.0 0.00 0.00 0.00 61 1014.6
20260508102530 62 256 1.0 5.0 0.00 0.00 0.00 62 1014.6
20260508102029 63 124 2.0 5.0 0.00 0.00 0.00 62 1014.7
20260508101502 63 32 2.0 5.0 0.00 0.00 0.00 63 1014.7
20260508101002 63 156 2.0 5.0 0.00 0.00 0.00 63 1014.7
20260508100723 63 273 2.0 5.0 0.00 0.00 0.00 64 1014.6
20260508100003 62 117 1.0 5.0 0.00 0.00 0.00 64 1014.7
20260508095501 62 127 1.0 5.0 0.00 0.00 0.00 66 1014.7
20260508095001 61 290 2.0 6.0 0.00 0.00 0.00 66 1014.8
20260508094434 61 110 3.0 7.0 0.00 0.00 0.00 67 1014.7
20260508093929 61 101 2.0 6.0 0.00 0.00 0.00 67 1014.8
20260508093429 61 72 2.0 5.0 0.00 0.00 0.00 68 1014.8
20260508092931 60 25 2.0 6.0 0.00 0.00 0.00 70 1014.8
20260508092423 60 68 1.0 5.0 0.00 0.00 0.00 72 1014.7
20260508091903 60 108 1.0 4.0 0.00 0.00 0.00 75 1014.8
20260508091634 59 90 1.0 4.0 0.00 0.00 0.00 75 1014.8
20260508090902 59 115 1.0 5.0 0.00 0.00 0.00 77 1014.8
20260508090329 59 110 1.0 5.0 0.00 0.00 0.00 78 1014.8
20260508085830 59 81 2.0 4.0 0.00 0.00 0.00 78 1014.8
20260508085302 58 115 2.0 4.0 0.00 0.00 0.00 78 1014.8
20260508084801 58 100 1.0 4.0 0.00 0.00 0.00 78 1014.8
20260508084453 58 107 1.0 3.0 0.00 0.00 0.00 79 1014.7
20260508083730 58 105 1.0 3.0 0.00 0.00 0.00 80 1014.7
20260508083229 58 109 1.0 4.0 0.00 0.00 0.00 79 1014.8
20260508082728 57 33 1.0 4.0 0.00 0.00 0.00 81 1014.7
20260508082230 57 359 1.0 3.0 0.00 0.00 0.00 82 1014.7
20260508081933 57 106 1.0 3.0 0.00 0.00 0.00 82 1014.7
20260508081423 56 101 1.0 4.0 0.00 0.00 0.00 83 1014.7
20260508080631 56 134 1.0 4.0 0.00 0.00 0.00 84 1014.7
20260508080131 56 20 1.0 4.0 0.00 0.00 0.00 84 1014.6
20260508075603 56 99 1.0 4.0 0.00 0.00 0.00 84 1014.6
20260508075101 55 79 1.0 4.0 0.00 0.00 0.00 85 1014.6
20260508074601 55 134 1.0 4.0 0.00 0.00 0.00 85 1014.6
20260508074029 55 139 1.0 4.0 0.00 0.00 0.00 86 1014.7
20260508073529 55 106 1.0 4.0 0.00 0.00 0.00 86 1014.7
20260508073027 55 18 0.0 0.0 0.00 0.00 0.00 86 1014.6
20260508072526 54 122 0.0 0.0 0.00 0.00 0.00 86 1014.6
20260508072002 54 82 0.0 0.0 0.00 0.00 0.00 87 1014.5
20260508071501 54 74 0.0 0.0 0.00 0.00 0.00 88 1014.5
20260508071002 54 33 0.0 0.0 0.00 0.00 0.00 88 1014.6
20260508070654 54 114 0.0 0.0 0.00 0.00 0.00 88 1014.5
20260508065930 53 103 0.0 0.0 0.00 0.00 0.00 88 1014.5
20260508065431 53 83 0.0 0.0 0.00 0.00 0.00 89 1014.4
20260508064930 53 94 0.0 0.0 0.00 0.00 0.00 89 1014.4
20260508064643 53 72 0.0 0.0 0.00 0.00 0.00 89 1014.4
20260508063901 53 70 0.0 0.0 0.00 0.00 0.00 91 1014.2
20260508063850 52 77 0.0 0.0 0.00 0.00 0.00 92 1014.2
20260508062830 52 87 0.0 0.0 0.00 0.00 0.00 93 1014.2
20260508062326 52 82 0.0 0.0 0.00 0.00 0.00 93 1014.2
20260508061803 51 94 0.0 0.0 0.00 0.00 0.00 94 1014.2
20260508061302 51 99 0.0 0.0 0.00 0.00 0.00 95 1014.1
20260508060802 51 99 0.0 0.0 0.00 0.00 0.00 96 1014.1
20260508060301 50 99 0.0 0.0 0.00 0.00 0.00 96 1014.0
20260508055809 50 84 0.0 0.0 0.00 0.00 0.00 96 1014.0
20260508055718 50 117 0.0 0.0 0.00 0.00 0.00 97 1014.0
20260508054736 50 46 0.0 0.0 0.00 0.00 0.00 97 1014.0
20260508054229 50 46 0.0 0.0 0.00 0.00 0.00 97 1014.0
20260508053945 49 46 0.0 0.0 0.00 0.00 0.00 97 1014.0
20260508053223 49 46 0.0 0.0 0.00 0.00 0.00 97 1014.0
20260508052721 49 46 0.0 0.0 0.00 0.00 0.00 97 1013.8
20260508052212 49 46 0.0 0.0 0.00 0.00 0.00 97 1014.0
20260508051704 48 46 0.0 0.0 0.00 0.00 0.00 97 1013.8
20260508051205 48 46 0.0 0.0 0.00 0.00 0.00 96 1013.8
20260508050704 48 46 0.0 0.0 0.00 0.00 0.00 96 1013.7
20260508050204 48 46 0.0 0.0 0.00 0.00 0.00 96 1013.7
20260508045632 48 46 0.0 0.0 0.00 0.00 0.00 96 1013.7
20260508045359 48 46 0.0 0.0 0.00 0.00 0.00 96 1013.7
20260508044850 48 46 0.0 0.0 0.00 0.00 0.00 96 1013.7
20260508044323 48 46 0.0 0.0 0.00 0.00 0.00 96 1013.6
20260508043603 47 46 0.0 0.0 0.00 0.00 0.00 96 1013.6
20260508043251 47 46 0.0 0.0 0.00 0.00 0.00 96 1013.6
20260508042527 47 46 0.0 0.0 0.00 0.00 0.00 96 1013.6
20260508042002 47 46 0.0 0.0 0.00 0.00 0.00 96 1013.6
20260508041504 47 46 0.0 0.0 0.00 0.00 0.00 96 1013.6
20260508041003 47 46 0.0 0.0 0.00 0.00 0.00 96 1013.6
20260508040431 47 46 0.0 0.0 0.00 0.00 0.00 96 1013.6
20260508035923 47 46 0.0 0.0 0.00 0.00 0.00 95 1013.5
20260508035403 47 46 0.0 0.0 0.00 0.00 0.00 95 1013.4
20260508034902 47 46 0.0 0.0 0.00 0.00 0.00 95 1013.4
20260508034556 47 46 0.0 0.0 0.00 0.00 0.00 95 1013.4
20260508034051 47 46 0.0 0.0 0.00 0.00 0.00 95 1013.4
20260508033331 48 46 0.0 0.0 0.00 0.00 0.00 95 1013.4
20260508033059 48 46 0.0 0.0 0.00 0.00 0.00 95 1013.4
20260508032331 47 46 0.0 0.0 0.00 0.00 0.00 95 1013.5
20260508031829 47 46 0.0 0.0 0.00 0.00 0.00 95 1013.5
20260508031332 47 46 0.0 0.0 0.00 0.00 0.00 95 1013.5
20260508030829 47 46 0.0 0.0 0.00 0.00 0.00 95 1013.4
20260508030331 47 46 0.0 0.0 0.00 0.00 0.00 95 1013.5
20260508025830 47 46 0.0 0.0 0.00 0.00 0.00 95 1013.5
20260508025815 47 46 0.0 0.0 0.00 0.00 0.00 95 1013.5
20260508024829 47 46 0.0 0.0 0.00 0.00 0.00 94 1013.5
20260508024302 48 46 0.0 0.0 0.00 0.00 0.00 94 1013.5
20260508023803 48 46 0.0 0.0 0.00 0.00 0.00 94 1013.4
20260508023302 48 46 0.0 0.0 0.00 0.00 0.00 94 1013.5
20260508022801 48 46 0.0 0.0 0.00 0.00 0.00 94 1013.5
20260508022232 48 46 0.0 0.0 0.00 0.00 0.00 94 1013.5
20260508021725 48 46 0.0 0.0 0.00 0.00 0.00 94 1013.6
20260508021224 48 46 0.0 0.0 0.00 0.00 0.00 94 1013.5
20260508020931 48 46 0.0 0.0 0.00 0.00 0.00 93 1013.4
20260508020202 48 46 0.0 0.0 0.00 0.00 0.00 93 1013.4
20260508020149 48 46 0.0 0.0 0.00 0.00 0.00 94 1013.5
20260508015431 49 46 0.0 0.0 0.00 0.00 0.00 93 1013.5
20260508014704 49 46 0.0 0.0 0.00 0.00 0.00 93 1013.4
20260508014202 49 46 0.0 0.0 0.00 0.00 0.00 93 1013.3
20260508013709 49 46 0.0 0.0 0.00 0.00 0.00 93 1013.3
20260508013201 49 46 0.0 0.0 0.00 0.00 0.00 93 1013.3
20260508012927 49 46 0.0 0.0 0.00 0.00 0.00 93 1013.3
20260508012202 50 46 0.0 0.0 0.00 0.00 0.00 93 1013.4
20260508011646 50 46 0.0 0.0 0.00 0.00 0.00 93 1013.4
20260508011133 50 46 0.0 0.0 0.00 0.00 0.00 94 1013.4
20260508010855 50 46 0.0 0.0 0.00 0.00 0.00 93 1013.4
20260508010105 50 46 0.0 0.0 0.00 0.00 0.00 93 1013.4
20260508005602 50 46 0.0 0.0 0.00 0.00 0.00 93 1013.4
20260508005253 50 46 0.0 0.0 0.00 0.00 0.00 93 1013.4
20260508004532 50 46 0.0 0.0 0.00 0.00 0.00 93 1013.5
20260508004252 51 46 0.0 0.0 0.00 0.00 0.00 93 1013.5
20260508003530 51 46 0.0 0.0 0.00 0.00 0.00 93 1013.4
20260508003025 51 46 0.0 0.0 0.00 0.00 0.00 93 1013.5
20260508002503 51 46 0.0 0.0 0.00 0.00 0.00 93 1013.4
20260508001931 51 46 0.0 0.0 0.00 0.00 0.00 93 1013.4
20260508001432 51 46 0.0 0.0 0.00 0.00 0.00 93 1013.5
20260508001124 51 46 0.0 0.0 0.00 0.00 0.00 93 1013.5
20260508000405 51 46 0.0 0.0 0.00 0.00 0.00 93 1013.5
20260507235902 51 46 0.0 0.0 0.00 0.00 0.00 93 1013.5
20260507235402 51 46 0.0 0.0 0.00 0.00 0.00 93 1013.5
20260507234903 51 46 0.0 0.0 0.00 0.00 0.00 93 1013.6
20260507234822 51 46 0.0 0.0 0.00 0.00 0.00 93 1013.6